This is the latest recevied weather packets stored in our database for station/object SQ7IQO. If no packets are shown the sender has not sent any weather packets the latest 10 day(s).
| Time | Temp. | Humidity | Pressure | Rain* | Wind** | Luminosity | Snow |
|---|---|---|---|---|---|---|---|
| 1787728478 | 17.78° C | 69% | 1023.8 hPa | 0 mm | 0 m/s | - | - |
| 1787728418 | 17.78° C | 72% | 1023.8 hPa | 0 mm | 0 m/s | - | - |
| 1787728358 | 18.33° C | 69% | 1023.8 hPa | 0 mm | 0 m/s | - | - |
| 1787728298 | 18.89° C | 67% | 1023.8 hPa | 0 mm | 0 m/s | - | - |
| 1787728238 | 18.89° C | 69% | 1023.8 hPa | 0 mm | 0 m/s | - | - |
| 1787728178 | 18.33° C | 69% | 1023.8 hPa | 0 mm | 0 m/s | - | - |
| 1787728118 | 17.78° C | 70% | 1023.7 hPa | 0 mm | 0 m/s | - | - |
| 1787728058 | 17.22° C | 71% | 1023.8 hPa | 0 mm | 0 m/s | - | - |
| 1787727998 | 17.22° C | 70% | 1023.8 hPa | 0 mm | 0 m/s | - | - |
| 1787727938 | 17.78° C | 70% | 1023.7 hPa | 0 mm | 0 m/s | - | - |
| 1787727878 | 17.78° C | 70% | 1023.7 hPa | 0 mm | 0 m/s | - | - |
| 1787727818 | 17.78° C | 70% | 1023.6 hPa | 0 mm | 0 m/s | - | - |
| 1787727758 | 18.33° C | 68% | 1023.7 hPa | 0 mm | 0 m/s | - | - |
| 1787727698 | 18.89° C | 69% | 1023.7 hPa | 0 mm | 0 m/s | - | - |
| 1787727638 | 18.33° C | 71% | 1023.7 hPa | 0 mm | 0 m/s | - | - |
| 1787727578 | 17.78° C | 69% | 1023.8 hPa | 0 mm | 0 m/s | - | - |
| 1787727518 | 18.33° C | 69% | 1023.7 hPa | 0 mm | 0 m/s | - | - |
| 1787727458 | 18.33° C | 68% | 1023.7 hPa | 0 mm | 0 m/s | - | - |
| 1787727398 | 18.33° C | 70% | 1023.7 hPa | 0 mm | 0 m/s | - | - |
| 1787727338 | 18.33° C | 69% | 1023.7 hPa | 0 mm | 0 m/s | - | - |
| 1787727278 | 18.33° C | 69% | 1023.7 hPa | 0 mm | 0 m/s | - | - |
| 1787727218 | 18.89° C | 68% | 1023.7 hPa | 0 mm | 0 m/s | - | - |
| 1787727158 | 18.89° C | 66% | 1023.6 hPa | 0 mm | 0 m/s | - | - |
| 1787727098 | 19.44° C | 66% | 1023.7 hPa | 0 mm | 0 m/s | - | - |
| 1787727038 | 19.44° C | 65% | 1023.6 hPa | 0 mm | 0 m/s | - | - |
* Rain latest hour (hover to see other rain measurements)
** Current wind speed in m/s (hover to see current wind gust speed)